EW1708 Weather Reports


time (UTC)temp
C
wind
direction
speed
KPH
gust
KPH
rain 1hr
cm
rain 24hr
cm
rain mn
cm
humidity
%
barometer
mb
20260504034847 13 328 25.7 40.2 0.00 0.00 0.00 39 999.3
20260504033853 13 328 25.7 46.7 0.00 0.00 0.00 38 999.1
20260504032855 13 320 27.4 46.7 0.00 0.00 0.00 38 998.9
20260504031830 13 0 25.7 41.8 0.00 0.00 0.00 39 998.8
20260504030827 13 342 17.7 30.6 0.00 0.00 0.00 41 998.6
20260504025836 13 333 19.3 40.2 0.00 0.00 0.00 41 998.4
20260504024813 14 0 20.9 43.5 0.00 0.00 0.00 42 998.5
20260504023823 14 0 24.1 43.5 0.00 0.00 0.00 43 998.0
20260504021643 13 0 22.5 41.8 0.00 0.00 0.00 47 997.9
20260504015537 13 13 25.7 48.3 0.00 0.00 0.00 51 997.8
20260504014547 14 17 40.2 59.5 0.00 0.00 0.00 47 997.7
20260504013548 15 13 35.4 59.5 0.00 0.00 0.00 42 997.5
20260504012607 16 15 33.8 66.0 0.00 0.00 0.00 40 997.1
20260504011550 16 346 40.2 66.0 0.00 0.00 0.00 39 997.0
20260504005430 17 13 33.8 51.5 0.00 0.00 0.00 37 996.4
20260504004444 18 0 35.4 61.2 0.00 0.00 0.00 36 996.1
20260504003455 21 338 35.4 61.2 0.00 0.00 0.00 30 995.5
20260504001336 21 287 35.4 51.5 0.00 0.00 0.00 29 995.3
20260504000354 22 306 38.6 62.8 0.00 0.00 0.00 28 995.3
20260503235331 22 306 40.2 62.8 0.00 0.00 0.00 28 995.4
20260503234314 22 310 38.6 61.2 0.00 0.00 0.00 28 995.5
20260503233240 22 313 38.6 61.2 0.00 0.00 0.00 27 995.4
20260503232210 23 316 37.0 59.5 0.00 0.00 0.00 25 995.4
20260503231159 23 327 35.4 54.7 0.00 0.00 0.00 25 995.3
20260503230130 23 306 37.0 62.8 0.00 0.00 0.00 24 995.3
20260503223943 24 313 37.0 59.5 0.00 0.00 0.00 22 995.3
20260503222939 24 304 37.0 54.7 0.00 0.00 0.00 24 995.1
20260503221907 23 296 30.6 48.3 0.00 0.00 0.00 27 995.4
20260503220911 23 323 33.8 54.7 0.00 0.00 0.00 30 995.4
20260503215901 23 261 37.0 54.7 0.00 0.00 0.00 27 995.5
20260503214856 23 271 33.8 53.1 0.00 0.00 0.00 27 996.0
20260503213904 23 286 32.2 48.3 0.00 0.00 0.00 27 996.3
20260503211735 24 228 37.0 57.9 0.00 0.00 0.00 23 996.8
20260503210707 24 263 38.6 57.9 0.00 0.00 0.00 22 997.1
20260503205636 25 246 37.0 56.3 0.00 0.00 0.00 22 997.4
20260503203503 23 263 33.8 57.9 0.00 0.00 0.00 24 998.1
20260503202501 24 270 35.4 57.9 0.00 0.00 0.00 24 998.3
20260503200314 23 282 35.4 53.1 0.00 0.00 0.00 24 999.0
20260503195330 24 267 37.0 57.9 0.00 0.00 0.00 23 999.3
20260503194317 23 253 30.6 57.9 0.00 0.00 0.00 25 999.5
20260503193248 23 250 29.0 49.9 0.00 0.00 0.00 25 999.9
20260503191153 22 268 25.7 51.5 0.00 0.00 0.00 26 1000.5
20260503190156 22 254 30.6 51.5 0.00 0.00 0.00 25 1000.8
20260503185202 22 248 25.7 45.1 0.00 0.00 0.00 24 1001.2
20260503182955 21 265 29.0 40.2 0.00 0.00 0.00 25 1001.7
20260503181937 21 265 24.1 40.2 0.00 0.00 0.00 26 1002.1
20260503180935 21 271 22.5 40.2 0.00 0.00 0.00 26 1002.4
20260503174837 21 267 27.4 43.5 0.00 0.00 0.00 24 1002.8
20260503173838 21 267 30.6 43.5 0.00 0.00 0.00 25 1003.1
20260503172812 21 279 24.1 38.6 0.00 0.00 0.00 26 1003.3
20260503170709 21 269 27.4 43.5 0.00 0.00 0.00 25 1003.9
20260503150650 17 223 20.9 33.8 0.00 0.00 0.00 35 1006.1
20260503131148 10 235 20.9 32.2 0.00 0.00 0.00 57 1007.6
20260503130138 9 228 19.3 30.6 0.00 0.00 0.00 57 1007.7
20260503081412 2 214 4.8 8.0 0.00 0.00 0.00 74 1010.2
20260503080408 2 216 4.8 6.4 0.00 0.00 0.00 73 1010.2
20260503072244 3 244 4.8 6.4 0.00 0.00 0.00 71 1010.6
20260503071256 3 245 4.8 6.4 0.00 0.00 0.00 70 1010.6
20260503070227 3 245 4.8 8.0 0.00 0.00 0.00 70 1010.9
20260503053837 5 192 4.8 8.0 0.00 0.00 0.00 66 1010.9
20260503052828 5 194 6.4 9.7 0.00 0.00 0.00 65 1011.0
20260503051830 5 188 6.4 9.7 0.00 0.00 0.00 65 1010.9
20260503050805 6 175 6.4 8.0 0.00 0.00 0.00 65 1011.1
20260503045751 6 174 4.8 8.0 0.00 0.00 0.00 60 1011.1
20260503044759 7 167 3.2 6.4 0.00 0.00 0.00 59 1011.2
20260503043736 8 20 0.0 1.6 0.00 0.00 0.00 53 1011.2
20260503042713 10 19 0.0 1.6 0.00 0.00 0.00 49 1011.2
20260503041653 10 19 1.6 3.2 0.00 0.00 0.00 50 1011.3
20260503040639 10 20 1.6 3.2 0.00 0.00 0.00 50 1011.4